Paul Philippe Ploquin

Paul Philippe Ploquin

Statistiques 2026

  • Courses courues : 406
  • Nb de victoires : 46
  • Nb de places : 131
  • Écart gagnant : 22
  • Réussite à la gagne : 11%
  • Réussite à la place : 32%
Musique : 0a 0m 0a 5m 0a Da Da 7a Da Da Da Da 4a Dm 8a 2a Da 5a
DateRangCatégorieAlloc.Dist.HippodromeChevalRed. KmSpé.
31/05/20 4 Trot 14 000€ 2 950m Saint Malo Glorieux du Gite 1'16"2 Attelé
31/05/20 2 Trot 17 000€ 2 950m Saint Malo Fadette de Cym 1'16"0 Attelé
31/05/20 0 Trot 17 000€ 2 950m Saint Malo French Kat Attelé
31/05/20 3 Trot 21 000€ 2 950m Saint Malo Deesse d'Idef 1'15"7 Attelé
06/06/21 5 Trot 15 000€ 2 950m Saint Malo Holiday Well 1'16"3 Monté
06/06/21 4 Trot 17 000€ 2 950m Saint Malo Irresistible Paj 1'17"9 Attelé
06/06/21 D Trot 17 000€ 2 950m Saint Malo Hajime Attelé
06/06/21 4 Trot 17 000€ 2 950m Saint Malo Hautentica 1'17"5 Attelé
06/06/21 6 Trot 19 000€ 2 950m Saint Malo Gamine du Bas Bosq 1'17"9 Attelé
06/06/21 D Trot 22 000€ 2 950m Saint Malo Flore de Rego Attelé
06/06/21 D Trot 23 000€ 2 950m Saint Malo Diamond Bourbon Attelé
06/06/21 4 Trot 19 000€ 2 950m Saint Malo Gipsy Souverain 1'16"4 Attelé
15/04/18 D Mixte 15 000€ 2 950m Saint Malo Emaho Monté
15/04/18 3 Mixte 25 000€ 2 950m Saint Malo Borib du Randou 1'18"4 Attelé
21/05/18 D Trot 10 000€ 2 950m Saint Malo Enterprise Attelé
21/05/18 6 Trot 16 000€ 2 950m Saint Malo Diamond Bourbon 1'18"1 Attelé
21/05/18 6 Trot 25 000€ 2 975m Saint Malo Affable d'Occagnes 1'17"4 Attelé
21/05/18 D Trot 12 000€ 2 950m Saint Malo Elaenia Dubelair Attelé
03/06/18 2 Trot 15 000€ 2 950m Saint Malo Emaho 1'17"1 Monté lire

Un des animateurs, a longtemps fait figure de lauréat, avant de s'incliner près du but.

13/07/18 9 Trot 20 000€ 2 950m Saint Malo Echo Sellois 1'18"2 Monté
15/08/18 9 Trot 13 000€ 2 950m Saint Malo Fiesta Express 1'20"9 Attelé
15/08/18 3 Trot 15 000€ 2 950m Saint Malo Erby Brun 1'19"2 Monté
15/07/21 4 Trot 17 000€ 2 975m Saint Malo Godefroy du Loisir 1'15"4 Monté
15/07/21 5 Trot 15 000€ 2 950m Saint Malo Helleniste 1'19"0 Attelé
15/07/21 0 Trot 15 000€ 2 950m Saint Malo Harlington Attelé
15/07/21 D Trot 17 000€ 2 950m Saint Malo Galaxy Wind Attelé
15/07/21 2 Trot 17 000€ 2 975m Saint Malo Fleur Fatale 1'15"6 Attelé
11/08/21 6 Trot 19 000€ 2 975m Saint Malo Hunadora 1'20"0 Attelé
11/08/21 D Trot 19 000€ 2 975m Saint Malo Hidalgo des Noes Attelé
11/08/21 D Trot 19 000€ 2 950m Saint Malo Flamenc de Font Attelé
11/08/21 3 Trot 29 000€ 2 950m Saint Malo Fifty Barbes 1'15"0 Monté
11/08/21 D Trot 85 000€ 2 975m Saint Malo Digne Et Droit Attelé lire

A rapidement été sanctionné.

24/04/22 4 Mixte 13 000€ 2 950m Saint Malo Idole de Jarry 1'18"7 Monté
24/04/22 D Mixte 13 000€ 2 950m Saint Malo Insta du Houssel Monté
02/06/19 D Trot 15 000€ 2 950m Saint Malo Flamion Carisaie Monté lire

Après avoir figuré, avait course gagnée quand il s'est désuni pour finir.

12/07/19 6 Trot 17 000€ 2 975m Saint Malo Exil de Loiron 1'18"1 Monté
12/07/19 D Trot 17 000€ 2 950m Saint Malo Erby Brun Attelé
12/07/19 0 Trot 17 000€ 2 950m Saint Malo Dimitri du Clos Attelé
22/05/20 2 Trot 12 000€ 2 975m Saint Malo Gazelle des Bordes 1'17"6 Attelé
22/05/20 8 Trot 9 000€ 2 950m Saint Malo Envol Montaval 1'18"8 Attelé
08/06/25 4 Trot 22 000€ 2 950m Saint Malo Kilefait 1'16"8 Attelé
08/06/25 0 Trot 22 000€ 2 975m Saint Malo Jacinthe du Boiron Attelé
08/06/25 D Trot 25 000€ 2 950m Saint Malo Hector de Mone Attelé
08/06/25 D Trot 24 000€ 2 975m Saint Malo Intello d'Erable Attelé
08/06/25 D Trot 22 000€ 2 950m Saint Malo Kapella Dry Attelé
08/06/25 1 Trot 19 500€ 2 950m Saint Malo Ledetroit Chenou 1'16"7 Attelé
08/06/25 4 Trot 19 500€ 2 950m Saint Malo Lipari 1'16"1 Attelé
08/06/25 6 Trot 17 000€ 2 950m Saint Malo Miss Victory 1'18"7 Attelé
12/07/23 4 Trot 19 500€ 2 975m Saint Malo Jack Dry 1'16"6 Monté
12/07/23 5 Trot 19 500€ 2 950m Saint Malo Idole 1'16"6 Attelé